Weather History for KMBS - October, 2011

Change the Weather History Date:

Saturday, October 29, 2011

  Actual Average Record
Temperature  
Mean Temperature 42 °F 45 °F  
Max Temperature 48 °F 54 °F 70 °F (1999)
Min Temperature 35 °F 37 °F 27 °F (2002)
Degree Days  
Heating Degree Days 24    
Month to date heating degree days  
Since 1 July heating degree days  
Cooling Degree Days 0    
Month to date cooling degree days  
Year to date cooling degree days  
Moisture  
Dew Point 36 °F    
Average Humidity 83    
Maximum Humidity 100    
Minimum Humidity 66    
Precipitation  
Precipitation 0.15 in 0.09 in 0.51 in (1996)
Month to date precipitation 2.46  
Year to date precipitation 26.81  
Snow  
Snow 0.00 in - - ()
Month to date snowfall  
Since 1 July snowfall  
Since 1 September snowfall  
Snow Depth -    
Sea Level Pressure  
Sea Level Pressure 30.06 in    
Wind  
Wind Speed 4 mph (SSW)    
Max Wind Speed 10 mph    
Max Gust Speed -    
Visibility 9 miles    
Events Rain    
T = Trace of Precipitation, MM = Missing Value Source: NWS Daily Summary

Daily Weather History Graph

Daily Weather History Graph

Search for Another Location

Airport or City:

Trip Planner

Search our weather history database for the weather conditions in past years. The results will help you decide how hot, cold, wet, or windy it might be!

Date:

Astronomy

Oct. 29, 2011 Rise Set
Actual Time 8:07 AM EDT 6:31 PM EDT
Civil Twilight 7:38 AM EDT 7:01 PM EDT
Nautical Twilight 7:04 AM EDT 7:34 PM EDT
Astronomical Twilight 6:31 AM EDT 8:08 PM EDT
Moon 11:34 AM EDT (10/29) 8:48 PM EDT (10/29)
Length of Visible Light 11h 23m
Length of Day
10h 24m
Waxing Crescent, 11% of the Moon is Illuminated
Oct 29
Waxing Crescent
Nov 2
First Quarter
Nov 10
Full
Nov 18
Last Quarter
Nov 25
New

Hourly Weather History & Observations

Time (EDT) Temp. Windchill Dew Point Humidity Pressure Visibility Wind Dir Wind Speed Gust Speed Precip Events Conditions
12:53 AM 39.0 °F 35.7 °F 30.9 °F 73% 30.09 in 10.0 mi SSW 4.6 mph - N/A   Clear
1:53 AM 39.0 °F 34.0 °F 30.0 °F 70% 30.07 in 10.0 mi South 6.9 mph - N/A   Clear
2:53 AM 37.4 °F 34.9 °F 30.2 °F 75% 30.05 in 10.0 mi South 3.5 mph - N/A   Clear
3:53 AM 37.9 °F 33.5 °F 30.9 °F 76% 30.05 in 10.0 mi South 5.8 mph - N/A   Clear
4:53 AM 37.0 °F 33.3 °F 30.9 °F 79% 30.05 in 10.0 mi South 4.6 mph - N/A   Clear
5:53 AM 35.6 °F 31.7 °F 32.0 °F 87% 30.04 in 10.0 mi WSW 4.6 mph - N/A   Overcast
6:53 AM 35.1 °F - 30.9 °F 85% 30.04 in 10.0 mi Calm Calm - N/A   Mostly Cloudy
7:53 AM 35.1 °F - 32.0 °F 89% 30.04 in 10.0 mi Calm Calm - N/A   Mostly Cloudy
8:53 AM 36.0 °F - 33.1 °F 89% 30.05 in 10.0 mi Calm Calm - N/A   Overcast
9:53 AM 39.0 °F 36.8 °F 35.1 °F 86% 30.06 in 10.0 mi SE 3.5 mph - N/A   Overcast
10:15 AM 37.4 °F 32.1 °F 35.6 °F 93% 30.05 in 2.5 mi SW 6.9 mph - 0.04 in Rain Rain
10:23 AM 37.4 °F 32.1 °F 35.6 °F 93% 30.04 in 1.2 mi SSW 6.9 mph - 0.10 in Rain Heavy Rain
10:35 AM 39.2 °F 33.6 °F 35.6 °F 87% 30.03 in 3.0 mi SE 8.1 mph - 0.13 in Rain Light Rain
10:53 AM 41.0 °F 34.7 °F 37.0 °F 86% 30.04 in 8.0 mi SSE 10.4 mph - 0.13 in Rain Light Rain
11:40 AM 41.0 °F 37.1 °F 39.2 °F 93% 30.04 in 7.0 mi WSW 5.8 mph - 0.00 in   Overcast
11:53 AM 42.1 °F 38.4 °F 37.9 °F 85% 30.06 in 10.0 mi WSW 5.8 mph - 0.00 in   Overcast
12:53 PM 43.0 °F 41.3 °F 39.0 °F 86% 30.06 in 10.0 mi WSW 3.5 mph - N/A   Overcast
1:39 PM 44.6 °F 43.1 °F 39.2 °F 81% 30.04 in 10.0 mi WSW 3.5 mph - N/A   Overcast
1:53 PM 45.0 °F - 39.9 °F 82% 30.06 in 10.0 mi Calm Calm - N/A   Overcast
2:25 PM 46.4 °F - 39.2 °F 76% 30.03 in 10.0 mi Calm Calm - N/A   Overcast
2:45 PM 46.4 °F - 39.2 °F 76% 30.03 in 10.0 mi Calm Calm - N/A   Mostly Cloudy
2:53 PM 46.0 °F - 39.0 °F 76% 30.04 in 10.0 mi Calm Calm - N/A   Scattered Clouds
3:53 PM 48.9 °F - 37.9 °F 66% 30.04 in 10.0 mi Variable 3.5 mph - N/A   Mostly Cloudy
4:26 PM 48.2 °F - 37.4 °F 66% 30.03 in 10.0 mi Calm Calm - N/A   Overcast
4:37 PM 48.2 °F - 39.2 °F 71% 30.03 in 10.0 mi Variable 3.5 mph - N/A   Mostly Cloudy
4:53 PM 46.9 °F - 37.9 °F 71% 30.05 in 10.0 mi Calm Calm - N/A   Mostly Cloudy
5:34 PM 42.8 °F 39.3 °F 37.4 °F 81% 30.04 in 4.0 mi SSW 5.8 mph - 0.02 in Rain Light Rain
5:49 PM 42.8 °F 39.3 °F 37.4 °F 81% 30.04 in 10.0 mi South 5.8 mph - 0.02 in   Overcast
5:53 PM 43.0 °F 39.5 °F 37.0 °F 80% 30.06 in 10.0 mi South 5.8 mph - 0.02 in   Overcast
6:53 PM 41.0 °F - 37.4 °F 87% 30.06 in 10.0 mi Calm Calm - N/A   Clear
7:53 PM 39.0 °F - 36.0 °F 89% 30.11 in 10.0 mi Calm Calm - N/A   Clear
8:53 PM 39.0 °F 36.8 °F 36.0 °F 89% 30.12 in 10.0 mi SSW 3.5 mph - N/A   Clear
9:53 PM 36.0 °F 32.1 °F 35.1 °F 97% 30.13 in 6.0 mi SW 4.6 mph - N/A   Partly Cloudy
10:53 PM 35.1 °F 30.1 °F 35.1 °F 100% 30.13 in 4.0 mi NNW 5.8 mph - N/A   Clear
11:53 PM 36.0 °F 32.1 °F 34.0 °F 93% 30.13 in 8.0 mi WSW 4.6 mph - N/A   Clear